[[{"header":{"parameterUnit":"m.s-1","parameterCategory":1,"la1":30.2991,"la2":30.254,"lo1":-89.0895,"lo2":-89.0444,"dx":0.0017,"dy":0.0017,"nx":28,"ny":28,"refTime":"2022-11-05T21:00:00:Z","depth":0,"parameterNumber":2,"parameterNumberName":"U-component_of_WINDS"},"data":[0,0,0,0,0,0,0,0,0,0,0,0,0,0,0,0,0,0,0,0,0,0,0,0,0,0,0,0,0,0,0,0,0,0,0,0,0,0,0,0,0,0,0,0,0,0,0,0,0,0,0,0,0,0,0,0,0,0,-0.5527,-0.5528,0,-0.5538,-0.5538,-0.5538,-0.5574,-0.5575,-0.5576,-0.5576,-0.5588,-0.5588,-0.5587,0,0,0,0,0,0,0,0,0,0,0,0,0,-0.5542,-0.5541,-0.5527,-0.5528,-0.5528,-0.5538,-0.5538,-0.5538,-0.5574,-0.5575,-0.5576,-0.5577,-0.5588,-0.5588,-0.5587,0,0,0,0,0,0,0,0,0,0,0,0,0,-0.5542,-0.5541,-0.5527,-0.5547,-0.5549,-0.5538,-0.5538,-0.5538,-0.5574,-0.5575,-0.5576,-0.5577,-0.5588,-0.5588,-0.5587,-0.5559,0,0,-0.5585,-0.5585,0,0,0,0,0,0,0,0,-0.5542,-0.5542,-0.5544,-0.5545,-0.5547,-0.5556,-0.5547,-0.5545,-0.5573,-0.5564,-0.5576,-0.5578,-0.5577,-0.5577,-0.5576,-0.556,-0.556,-0.5585,-0.5585,-0.5584,-0.5584,0,0,0,0,0,0,0,-0.5542,-0.5541,-0.5532,-0.5544,-0.5546,-0.5556,-0.5557,-0.5547,-0.5563,-0.5565,-0.5568,-0.5568,-0.5578,-0.5577,-0.5577,-0.556,-0.5585,-0.5585,-0.5584,-0.5584,-0.5524,-0.5523,0,0,0,0,0,0,-0.5539,-0.5541,-0.5531,-0.5532,-0.5548,-0.5555,-0.5556,-0.5552,-0.5564,-0.5567,-0.5567,-0.557,-0.5577,-0.5578,-0.5577,-0.5546,-0.5584,-0.5584,-0.5583,-0.5525,-0.5524,-0.5522,0,0,0,0,0,0,-0.5539,-0.5538,-0.5531,-0.5537,-0.5537,-0.5553,-0.5548,-0.5552,-0.555,-0.5565,-0.5569,-0.5563,-0.5578,-0.5578,-0.5564,-0.5547,-0.5584,-0.5583,-0.5526,-0.5525,-0.5523,-0.5482,0,0,0,0,0,0,-0.5539,-0.5538,-0.5526,-0.5537,-0.5537,-0.5516,-0.5547,-0.5551,-0.5549,-0.5553,-0.5562,-0.5565,-0.5579,-0.5565,-0.5563,-0.5547,-0.5582,-0.5528,-0.5526,-0.5524,-0.5485,-0.5479,-0.5474,0,0,0,0,0,-0.554,-0.5514,-0.5525,-0.5524,-0.5522,-0.5515,-0.5515,-0.5531,-0.5548,-0.5537,-0.5547,-0.5565,-0.555,-0.5563,-0.5561,-0.5544,-0.5529,-0.5526,-0.5524,-0.5488,-0.5481,-0.5475,0,0,0,0,0,0,-0.55,-0.5515,-0.5528,-0.5505,-0.5508,-0.5521,-0.5507,-0.5523,-0.5522,-0.5525,-0.5547,-0.5549,-0.5531,-0.5537,-0.5551,-0.5519,-0.5543,-0.5539,-0.5516,-0.5509,-0.5504,-0.5502,-0.5582,0,0,0,0,0,-0.5488,-0.548,-0.5495,-0.5473,-0.5474,-0.549,-0.5488,-0.55,-0.5505,-0.5507,-0.5516,-0.552,-0.5517,-0.5513,-0.5511,-0.5487,-0.5491,-0.5476,-0.547,-0.5466,-0.5462,-0.5452,-0.5445,-0.5513,-0.5513,-0.5513,0,0,-0.5464,-0.5472,-0.5465,-0.5465,-0.5469,-0.5461,-0.5491,-0.5481,-0.5476,-0.5505,-0.5492,-0.5499,-0.5506,-0.5487,-0.5479,-0.5491,-0.5445,-0.5462,-0.5458,-0.5457,-0.5448,-0.5442,-0.5436,-0.5512,-0.5512,-0.5512,0,0,-0.5416,-0.5421,-0.5404,-0.5408,-0.5414,-0.5426,-0.5422,-0.5433,-0.5439,-0.5426,-0.5449,-0.5444,-0.5437,-0.5441,-0.5443,-0.54,-0.5417,-0.5399,-0.537,-0.536,-0.5354,-0.535,-0.5335,-0.5329,-0.5396,-0.5396,-0.5396,0,-0.5385,-0.5373,-0.5393,-0.5382,-0.5382,-0.541,-0.5393,-0.5397,-0.5402,-0.5402,-0.5415,-0.5409,-0.5415,-0.5399,-0.5389,-0.5389,-0.5386,-0.5397,-0.5354,-0.5349,-0.5345,-0.5331,-0.5325,-0.5394,-0.5394,-0.5394,-0.5395,0,-0.5335,-0.5327,-0.5313,-0.5318,-0.5316,-0.5303,-0.5322,-0.5318,-0.5333,-0.5343,-0.5332,-0.5341,-0.5341,-0.5339,-0.5352,-0.5325,-0.5332,-0.535,-0.5373,-0.5336,-0.5323,-0.5318,-0.5391,-0.5391,-0.5392,-0.5393,0,0,-0.5258,-0.5277,-0.5271,-0.5275,-0.5286,-0.528,-0.527,-0.527,-0.5267,-0.5272,-0.5263,-0.5259,-0.5275,-0.5277,-0.5292,-0.5283,-0.525,-0.5302,-0.5302,-0.5291,-0.5221,-0.5207,-0.52,-0.5262,-0.5261,-0.5261,-0.5221,0,-0.5212,-0.5193,-0.5212,-0.519,-0.5183,-0.5212,-0.5203,-0.5209,-0.522,-0.5217,-0.523,-0.5226,-0.5249,-0.525,-0.5243,-0.5255,-0.5236,-0.5259,-0.5255,-0.5255,-0.525,-0.5194,-0.5178,-0.514,-0.5216,-0.5215,-0.5214,0,-0.5155,-0.5157,-0.5133,-0.5148,-0.5146,-0.5137,-0.5141,-0.5138,-0.5147,-0.5156,-0.5159,-0.5178,-0.517,-0.5195,-0.5185,-0.52,-0.52,-0.5207,-0.5206,-0.5204,-0.5231,-0.519,-0.5128,-0.5121,-0.5207,-0.5207,-0.5208,0,-0.5101,-0.5098,-0.5084,-0.5086,-0.5103,-0.5097,-0.5104,-0.5114,-0.5114,-0.5118,-0.5119,-0.5122,-0.5124,-0.5126,-0.5146,-0.5162,-0.5134,-0.516,-0.5142,-0.5141,-0.5132,-0.5132,-0.5068,-0.5135,-0.5135,-0.5135,-0.5135,0,-0.5046,-0.5031,-0.506,-0.5051,-0.5036,-0.506,-0.5044,-0.5054,-0.5064,-0.5059,-0.5085,-0.508,-0.5107,-0.5105,-0.5121,-0.5111,-0.5112,-0.5119,-0.5123,-0.5116,-0.5115,-0.5115,-0.5117,-0.5133,-0.5134,-0.5134,-0.5134,0,-0.4982,-0.5001,-0.4988,-0.5006,-0.501,-0.4998,-0.5014,-0.5008,-0.5022,-0.5015,-0.5015,-0.5038,-0.5037,-0.5058,-0.5062,-0.5073,-0.5056,-0.5065,-0.5052,-0.5054,-0.5034,-0.5036,-0.4967,-0.4959,-0.5032,-0.5031,-0.5031,0,-0.4944,-0.4933,-0.4951,-0.495,-0.4955,-0.4953,-0.4953,-0.4978,-0.4978,-0.499,-0.4982,-0.4984,-0.4987,-0.4985,-0.5002,-0.5006,-0.5016,-0.4991,-0.5016,-0.501,-0.5014,-0.5014,-0.5014,-0.4985,-0.4984,-0.4984,-0.4983,0,-0.4877,-0.4888,-0.4887,-0.4891,-0.4892,-0.4896,-0.4902,-0.49,-0.4927,-0.4926,-0.4926,-0.4928,-0.4934,-0.4935,-0.4943,-0.4952,-0.4972,-0.4976,-0.4971,-0.4963,-0.4955,-0.4958,-0.5036,-0.4976,-0.4977,-0.4977,-0.4978,-0.4978,-0.4824,-0.4816,-0.4828,-0.4828,-0.4836,-0.4842,-0.4837,-0.4851,-0.4852,-0.4857,-0.4873,-0.4871,-0.4884,-0.4896,-0.4903,-0.4903,-0.4915,-0.4909,-0.4907,-0.4905,-0.4901,-0.4957,-0.4905,-0.4905,-0.4905,-0.4905,-0.4905,0,-0.4757,-0.4767,-0.4767,-0.4775,-0.4776,-0.4796,-0.4805,-0.4804,-0.4801,-0.4812,-0.4814,-0.4816,-0.4819,-0.4837,-0.4843,-0.4839,-0.4849,-0.484,-0.4839,-0.4841,-0.489,-0.4892,-0.4832,-0.4832,-0.4832,-0.4832,-0.4832,-0.4832,-0.4722,-0.471,-0.4723,-0.4716,-0.4727,-0.4725,-0.4728,-0.4735,-0.4743,-0.4743,-0.4746,-0.4758,-0.4773,-0.478,-0.4784,-0.479,-0.479,-0.4778,-0.4786,-0.4831,-0.4838,-0.4844,-0.4847,-0.4778,-0.4778,-0.4738,-0.4737,-0.4737]},{"header":{"parameterUnit":"m.s-1","parameterCategory":1,"la1":30.2991,"la2":30.254,"lo1":-89.0895,"lo2":-89.0444,"dx":0.0017,"dy":0.0017,"nx":28,"ny":28,"refTime":"2022-11-05T21:00:00:Z","depth":0,"parameterNumber":3,"parameterNumberName":"V-component_of_WINDS"},"data":[0,0,0,0,0,0,0,0,0,0,0,0,0,0,0,0,0,0,0,0,0,0,0,0,0,0,0,0,0,0,0,0,0,0,0,0,0,0,0,0,0,0,0,0,0,0,0,0,0,0,0,0,0,0,0,0,0,0,-0.7945,-0.7945,0,-0.7996,-0.7997,-0.7997,-0.8031,-0.8031,-0.8031,-0.8032,-0.8082,-0.8084,-0.8085,0,0,0,0,0,0,0,0,0,0,0,0,0,-0.7871,-0.7872,-0.7945,-0.7945,-0.7946,-0.7996,-0.7997,-0.7998,-0.8031,-0.8031,-0.8031,-0.8032,-0.8082,-0.8083,-0.8085,0,0,0,0,0,0,0,0,0,0,0,0,0,-0.7911,-0.7873,-0.7945,-0.7969,-0.7972,-0.7996,-0.7997,-0.7998,-0.8031,-0.8031,-0.8032,-0.8032,-0.8082,-0.8083,-0.8085,-0.8089,0,0,-0.809,-0.8091,0,0,0,0,0,0,0,0,-0.7909,-0.7914,-0.7965,-0.7967,-0.797,-0.8008,-0.799,-0.8028,-0.8031,-0.8008,-0.8032,-0.8032,-0.8057,-0.8061,-0.807,-0.8091,-0.8094,-0.809,-0.8091,-0.8092,-0.8093,0,0,0,0,0,0,0,-0.7906,-0.7912,-0.7965,-0.7965,-0.7969,-0.7976,-0.7982,-0.7997,-0.803,-0.801,-0.8013,-0.8019,-0.8059,-0.8068,-0.8071,-0.8094,-0.809,-0.8092,-0.8093,-0.8094,-0.8117,-0.8116,0,0,0,0,0,0,-0.79,-0.7909,-0.7964,-0.7967,-0.794,-0.7977,-0.7983,-0.7995,-0.803,-0.8036,-0.8018,-0.802,-0.8065,-0.8069,-0.8073,-0.8077,-0.8092,-0.8094,-0.8095,-0.8117,-0.8117,-0.8116,0,0,0,0,0,0,-0.7898,-0.7904,-0.7961,-0.7939,-0.7946,-0.7978,-0.7991,-0.7996,-0.8006,-0.8036,-0.8042,-0.8022,-0.8065,-0.8071,-0.8084,-0.808,-0.8095,-0.8096,-0.8118,-0.8117,-0.8116,-0.8088,0,0,0,0,0,0,-0.7896,-0.7904,-0.7907,-0.7938,-0.7947,-0.7973,-0.799,-0.7997,-0.8009,-0.8011,-0.8041,-0.8046,-0.8066,-0.8081,-0.8086,-0.8082,-0.8097,-0.8118,-0.8117,-0.8117,-0.8089,-0.8086,-0.8083,0,0,0,0,0,-0.7893,-0.7897,-0.7907,-0.7913,-0.7952,-0.7973,-0.7978,-0.8001,-0.8008,-0.8011,-0.8029,-0.8045,-0.8079,-0.8082,-0.8088,-0.8085,-0.8119,-0.8118,-0.8117,-0.809,-0.8087,-0.8084,0,0,0,0,0,0,-0.7865,-0.7902,-0.7913,-0.7928,-0.7947,-0.7978,-0.7983,-0.7997,-0.8014,-0.8016,-0.8043,-0.8049,-0.8058,-0.8073,-0.8076,-0.8088,-0.8101,-0.8101,-0.8079,-0.8075,-0.8073,-0.8069,-0.8099,0,0,0,0,0,-0.7861,-0.7875,-0.7906,-0.7916,-0.7925,-0.7951,-0.7961,-0.7977,-0.7998,-0.8006,-0.8026,-0.8044,-0.8058,-0.8068,-0.8083,-0.8091,-0.8096,-0.8091,-0.8088,-0.8086,-0.8085,-0.8087,-0.8084,-0.8113,-0.8113,-0.8113,0,0,-0.7852,-0.7874,-0.7881,-0.7911,-0.7927,-0.794,-0.7958,-0.7972,-0.7981,-0.8008,-0.8021,-0.8036,-0.8058,-0.8067,-0.8072,-0.8079,-0.8078,-0.8085,-0.8082,-0.8084,-0.8085,-0.8083,-0.808,-0.8113,-0.8113,-0.8113,0,0,-0.7842,-0.7861,-0.7869,-0.7885,-0.7909,-0.7926,-0.7927,-0.7956,-0.7967,-0.798,-0.8,-0.8009,-0.8035,-0.8049,-0.8059,-0.8048,-0.8062,-0.8052,-0.8038,-0.8039,-0.8037,-0.8035,-0.8029,-0.8026,-0.8052,-0.8052,-0.8052,0,-0.7828,-0.7849,-0.7872,-0.7883,-0.7894,-0.7918,-0.7925,-0.7939,-0.7966,-0.7972,-0.798,-0.8009,-0.8026,-0.8037,-0.8034,-0.8042,-0.8043,-0.805,-0.8035,-0.8033,-0.8032,-0.8026,-0.8024,-0.805,-0.8051,-0.8051,-0.8051,0,-0.7828,-0.7842,-0.7846,-0.7871,-0.7882,-0.7891,-0.7914,-0.7922,-0.7935,-0.7951,-0.7962,-0.7982,-0.8,-0.8004,-0.8018,-0.8016,-0.8019,-0.803,-0.8043,-0.8027,-0.8022,-0.8021,-0.8048,-0.8049,-0.8049,-0.805,0,0,-0.7806,-0.784,-0.7841,-0.7851,-0.7877,-0.7887,-0.7896,-0.7913,-0.7918,-0.7935,-0.7941,-0.796,-0.7969,-0.798,-0.7995,-0.7996,-0.7983,-0.8007,-0.8008,-0.8,-0.7978,-0.7969,-0.7966,-0.7992,-0.7991,-0.7991,-0.7975,0,-0.7799,-0.7816,-0.7835,-0.7845,-0.7856,-0.7876,-0.7883,-0.7898,-0.7912,-0.7921,-0.7936,-0.7948,-0.7961,-0.7967,-0.7969,-0.7984,-0.7978,-0.7986,-0.7996,-0.7996,-0.7989,-0.7964,-0.7955,-0.794,-0.7974,-0.7974,-0.7973,0,-0.7794,-0.7808,-0.7819,-0.784,-0.7845,-0.7852,-0.7866,-0.7876,-0.7892,-0.7902,-0.7912,-0.7927,-0.7934,-0.7945,-0.7953,-0.7958,-0.7962,-0.797,-0.797,-0.7971,-0.7984,-0.7964,-0.7936,-0.7933,-0.7971,-0.7971,-0.7971,0,-0.7774,-0.7796,-0.7804,-0.7812,-0.7838,-0.7841,-0.7851,-0.7868,-0.7875,-0.7888,-0.7892,-0.7905,-0.7912,-0.7921,-0.7937,-0.7944,-0.7943,-0.7956,-0.7949,-0.7948,-0.7948,-0.7948,-0.7919,-0.7952,-0.7952,-0.7952,-0.7952,0,-0.7764,-0.777,-0.7795,-0.78,-0.7805,-0.7826,-0.783,-0.7842,-0.7855,-0.7861,-0.7879,-0.7884,-0.7906,-0.7913,-0.7926,-0.7929,-0.7932,-0.7938,-0.7942,-0.7937,-0.7935,-0.794,-0.7941,-0.7952,-0.7952,-0.7952,-0.7952,0,-0.7744,-0.7761,-0.7771,-0.7793,-0.7798,-0.7801,-0.7818,-0.7823,-0.7835,-0.7842,-0.7845,-0.7865,-0.7873,-0.789,-0.7904,-0.7912,-0.7911,-0.7918,-0.7906,-0.7908,-0.7899,-0.7899,-0.7872,-0.7868,-0.7904,-0.7904,-0.7904,0,-0.7736,-0.774,-0.7761,-0.7766,-0.7776,-0.7784,-0.7791,-0.7809,-0.7816,-0.7831,-0.7833,-0.7842,-0.7851,-0.7863,-0.7877,-0.7886,-0.7892,-0.7882,-0.7894,-0.7887,-0.789,-0.7889,-0.7888,-0.788,-0.7879,-0.7879,-0.7878,0,-0.772,-0.7728,-0.7738,-0.7749,-0.7756,-0.7766,-0.7777,-0.7779,-0.78,-0.7805,-0.7813,-0.782,-0.7832,-0.784,-0.785,-0.7859,-0.7871,-0.7874,-0.7872,-0.7867,-0.7859,-0.7861,-0.7898,-0.7875,-0.7875,-0.7876,-0.7876,-0.7876,-0.7706,-0.7709,-0.7722,-0.7731,-0.7741,-0.7749,-0.7753,-0.7765,-0.7772,-0.7783,-0.7793,-0.7799,-0.781,-0.7826,-0.7833,-0.7836,-0.7843,-0.7841,-0.7841,-0.784,-0.7836,-0.7859,-0.7839,-0.7839,-0.7839,-0.7839,-0.7839,0,-0.7689,-0.7698,-0.7706,-0.7719,-0.7725,-0.7735,-0.7746,-0.775,-0.7755,-0.7765,-0.7772,-0.7779,-0.7785,-0.7799,-0.7806,-0.7806,-0.7811,-0.7807,-0.7807,-0.7808,-0.7832,-0.7831,-0.7802,-0.7802,-0.7802,-0.7802,-0.7802,-0.7802,-0.7682,-0.7686,-0.7694,-0.7702,-0.771,-0.7717,-0.7722,-0.7728,-0.7735,-0.7742,-0.7748,-0.7756,-0.7766,-0.7773,-0.7778,-0.7782,-0.7783,-0.7776,-0.7781,-0.7803,-0.7807,-0.781,-0.781,-0.7777,-0.7777,-0.7757,-0.7757,-0.7757]}]]